Location: Unspecified
(0.0000°N, 0.0000°E)
Time: 07:38:09
(UTC+00:00)

Hubble Space Telescope - Pass Details

Date: 21 November 2023
Orbit: 518 x 522 km, 28.5° (Epoch: 08 December)

Event Time Altitude Azimuth Distance (km) Brightness Sun altitude
Exits shadow 04:06:44 79° 96° (E) 528 0.7 -23.2°
Drops below altitude 10° 04:10:32 10° 119° (ESE) 1,739 4.5 -22.3°
Sets 04:12:46 0° 119° (ESE) 2,627 5.8 -21.8°
